Regional Weather Roundup
Issued by NWS Memphis, TN

Home | Current Version | Previous Version | Text Only | Print | Product List | Glossary On
Versions: 1 2 3 4 5 6 7 8 9 10 11 12 13 14 15 16 17 18 19 20 21 22 23 24 25 26 27 28 29 30 31 32 33 34 35 36 37 38 39 40 41 42 43 44 45 46 47 48 49 50
000
ASUS44 KMEG 292310
RWRMEG
MEMPHIS CWA HOURLY WEATHER ROUNDUP
NATIONAL WEATHER SERVICE MEMPHIS TN
600 PM CDT SUN MAY 29 2016

...WEST TENNESSEE...

CITY           SKY/WX    TMP DP  RH WIND       PRES   REMARKS
MEMPHIS INTL   CLOUDY    85  66  53 NW7       30.05F
NWS MEMPHIS      N/A     85 N/A N/A MISG        N/A
JACKSON        SUNNY     86  66  51 NW3       30.04F
LEXINGTON      SUNNY     86  64  48 NW7       30.04S
DYERSBURG      MOSUNNY   84  66  54 NW5       30.04S
UNION CITY     SUNNY     86  66  51 NW6       30.03S
PARIS          SUNNY     84  64  51 W7        30.05S


...EASTERN ARKANSAS...

CITY           SKY/WX    TMP DP  RH WIND       PRES   REMARKS
JONESBORO      CLOUDY    83  66  56 NW6       30.05F
WEST MEMPHIS   PTSUNNY   83  68  60 W3        30.04S
BATESVILLE     CLOUDY    82  66  57 CALM      30.08S
NEWPORT        CLOUDY    86  67  52 SW3       30.08S
WALNUT RIDGE   CLOUDY    82  61  47 NW6       30.06S
BLYTHEVILLE    PTSUNNY   85  69  58 NW7       30.04F
SEARCY         CLOUDY    79  75  89 SW5       30.09F
STUTTGART      CLOUDY    73  64  73 SW12      30.12R THUNDER
PINE BLUFF     LGT RAIN  70  65  84 E8        30.11F
MONTICELLO     TSTM      68  65  90 NE14G21   30.12R FOG


...NORTH MISSISSIPPI...

CITY           SKY/WX    TMP DP  RH WIND       PRES   REMARKS
TUPELO         SUNNY     89  60  37 W6        30.03S
OXFORD         SUNNY     86  64  48 NW6       30.06F
BATESVILLE     CLOUDY    85  69  57 W6        30.05S
OLIVE BRANCH   PTSUNNY   82  68  61 W5        30.05F
TUNICA         CLOUDY    82  70  65 W7        30.06S
CLARKSDALE     SUNNY     84  73  70 NW6       30.05S HX  91
CORINTH        MOSUNNY   86  64  48 NW5       30.03S
GREENWOOD      MOSUNNY   89  65  44 NW3       30.03F HX  91
STARKVILLE     MOSUNNY   90  61  37 W5        30.02F
GOLDEN TRIANGL MOSUNNY   91  64  40 NW7       30.03S HX  93


...SOUTHEAST MISSOURI...

CITY           SKY/WX    TMP DP  RH WIND       PRES   REMARKS
KENNETT        PTSUNNY   86  66  51 CALM      30.03F
WEST PLAINS    CLOUDY    83  60  45 CALM      30.11F
POPLAR BLUFF   SUNNY     85  62  46 NW6       30.05S
CAPE GIRARDEAU SUNNY     85  61  44 W7        30.04S


...NORTHWEST ALABAMA...

CITY           SKY/WX    TMP DP  RH WIND       PRES   REMARKS
MUSCLE SHOALS  MOSUNNY   90  61  37 W8        30.04F HX  90


...MIDDLE TENNESSEE...

CITY           SKY/WX    TMP DP  RH WIND       PRES   REMARKS
NASHVILLE      MOSUNNY   87  63  44 SW6       30.03F
CLARKSVILLE    SUNNY     84  67  56 W10       30.03F
COLUMBIA       MOSUNNY   88  66  48 NW3       30.03F HX  90


...WESTERN KENTUCKY...

CITY           SKY/WX    TMP DP  RH WIND       PRES   REMARKS
PADUCAH        SUNNY     86  61  42 NW6       30.03F


...CENTRAL ARKANSAS...

CITY           SKY/WX    TMP DP  RH WIND       PRES   REMARKS
LITTLE ROCK    CLOUDY    72  65  78 VRB5      30.07F


SKY/WX REPORTED AS FAIR MEANS FEW OR NO CLOUDS BELOW
12 THOUSAND FEET.





USA.gov is the U.S. government's official web portal to all federal, state and local government web resources and services.